www.pogodaiklimat.ru

Погода и климат >> Архив погоды >> Россия >> Забайкальский край >> Хилок


АРХИВ ПОГОДЫ в Хилке

Время (UTC), дата Ветер
(напр.,м/с)
 
Видим.   Явления Облачность Т
(С)
Тd
(С)
f
(%)
Тe
(С)
Тes
(С)
Комфортность P
(гПа)
Po
(гПа)
Тmin
(С)
Tmax
(С)
R
(мм)
R24
(мм)
S
(см)
09 18.05 З 7-11
{14}
50 км 10/10 600 м
[Sc]
+4.0 -4.0 56 -1 -1 1016.5 921.8
12 18.05 З 7-11
{14}
50 км 10/10 600 м
[Sc]
+2.6 -3.5 64 -3 -3 1017.6 922.4 +5.2
15 18.05 З 5
{11}
20 км слаб. снег 10/10 600 м
[Sc]
+0.5 -1.3 88 -6 -6 1018.1 922.2
18 18.05 З 3
{11}
20 км слаб. снег 10/10 600 м
[Sc]
+0.4 -1.1 90 -4 -4 1017.1 921.3
21 18.05 З 3 20 км слаб. снег 10/10 600 м
[Sc]
+0.4 -1.1 90 -4 -4 1017.1 921.0
00 19.05 З 4 20 км слаб. снег 10/10 600 м
[Sc]
+0.7 -0.2 94 -5 -5 1017.6 921.9 +0.1 4 2
03 19.05 СЗ 4 50 км {снег} 10/6 600 м
[Cu Sc As trans]
+5.1 -0.7 66 +1 +3 1016.9 922.6
06 19.05 З 4 50 км {снег} 10/10 600 м
[Sc]
+9.1 -2.9 43 +7 +7 1015.1 922.2
09 19.05 СЗ 5
{10}
50 км 6/6 600 м
[Cu med, cong]
+11.5 -4.9 31 +9 +11 1013.5 921.4
12 19.05 СЗ 3
{10}
50 км 4/3 1000 м
[Cu Sc Ci fib]
+10.7 -5.6 31 +9 +9 1014.1 921.8 +12.8 0.0
15 19.05 штиль 0 50 км 3/0
[Ci fib]
-0.4 -3.7 78 -1 -1 1018.8 922.5
18 19.05 З 1 50 км 3/0
[Ci fib]
-2.8 -6.0 79 -5 -5 1019.4 922.2
21 19.05 штиль 0 50 км ясно -4.9 -7.0 85 -6 -6 1020.2 922.2
00 20.05 З 4 50 км ясно +5.6 -5.1 46 +2 +6 1016.5 922.3 -5.1
03 20.05 СЗ 5-10
{10}
50 км ясно +13.2 -9.5 20 +12 +19 1012.3 920.8
06 20.05 З 7-10
{11}
50 км ясно +16.2 -10.9 14 +15 +19 1009.1 918.8
09 20.05 СЗ 5-13
{13}
50 км ясно +17.8 -11.9 12 +17 +21 1006.9 917.3
12 20.05 СЗ 2
{13}
50 км 4/0
[Ci fib]
+15.5 -12.2 14 +16 +16 1008.1 917.7 +18.2
15 20.05 штиль 0 50 км ясно +0.6 -5.0 66 -0 -0 1014.2 918.7
18 20.05 З 2 50 км ясно -1.6 -8.6 59 -5 -5 1015.4 919.0
21 20.05 З 1 50 км 3/0
[Ci fib]
-4.1 -9.0 69 -6 -6 1016.5 919.2
00 21.05 штиль 0 50 км 4/0
[Ci fib]
+6.3 -7.2 37 +6 +13 1012.6 919.0 -4.3
03 21.05 З 4 50 км 4/0
[Ci fib]
+17.3 -7.3 18 +17 +26 1007.3 917.6
06 21.05 СЗ 3 50 км 4/0
[Ci fib]
+21.4 -8.3 13 +20 +32 1003.4 915.1
09 21.05 ЮЗ 1 50 км 6/0
[Ci fib]
+22.9 -7.9 12 +21 +27 комфорт 1000.4 912.8
12 21.05 ЮВ 1 50 км 6/4 1000 м
[Cu Sc Ci fib]
+16.6 -1.5 29 +18 +18 1001.7 912.3 +23.3
15 21.05 штиль 0 50 км 4/0
[Ci fib]
+6.0 -1.4 59 +6 +6 1005.2 912.3
18 21.05 В 1 50 км 3/0
[Ci fib]
+0.4 -3.9 73 -1 -1 1006.6 911.8
21 21.05 штиль 0 50 км 3/0
[Ci fib]
-1.5 -4.7 79 -3 -3 1007.1 911.5
00 22.05 В 3 50 км 8/0
[Cs]
+8.0 -1.5 51 +6 +10 1002.6 910.5 -1.8
03 22.05 СВ 2 50 км 4/0
[Ci fib]
+22.0 -0.5 22 +21 +35 комфорт 995.4 908.1
06 22.05 З 4 50 км 6/3 1000 м
[Cu hum Ci ing]
+29.2 -3.9 11 +26 +32 жарко 990.3 905.4
09 22.05 СЗ 2
{11}
50 км 8/8 600 м
[Cb calv]
+28.2 -3.8 12 +25 +26 комфорт 989.9 904.8
12 22.05 СЗ 1
{11}
50 км 8/6 600 м
[Cb calv Ci fib]
+24.2 -1.7 18 +23 +23 комфорт 993.2 906.7 +30.0
15 22.05 З 3 50 км 8/6 600 м
[Cu Sc Ci fib]
+17.8 -0.8 28 +18 +18 997.7 909.0
18 22.05 ЮЗ 1 50 км 8/6 600 м
[Cu Sc Ci fib]
+13.6 +2.8 48 +14 +14 1001.2 911.0
21 22.05 штиль 0 50 км 6/0
[Ac trans Ci fib]
+8.3 +4.7 78 +8 +8 1002.1 910.3
00 23.05 В 1 50 км 6/6 600 м
[Sc]
+15.9 +4.2 46 +17 +19 999.4 910.1 +8.0
03 23.05 ЮВ 5 50 км 6/0
[Ac trans Ci fib]
+22.3 +2.9 28 +22 +28 комфорт 993.7 906.7
06 23.05 СЗ 6-13
{13}
50 км 10/6 600 м
[Cb calv Cs]
+25.9 +4.3 25 +25 +27 комфорт 988.9 903.3
09 23.05 З 6-10
{15}
50 км {гроза} 8/6 600 м
[Cb calv Ci fib]
+26.5 +2.0 20 +25 +26 комфорт 987.9 902.5
12 23.05 СЗ 9-14
{17}
50 км {гроза} 8/6 600 м
[Cu Sc Ci fib]
+21.1 +1.0 26 +21 +21 комфорт 994.8 907.4 +27.9
15 23.05 З 7-13
{17}
50 км 8/8 600 м
[Cu Sc]
+14.3 -0.2 37 +12 +12 1003.5 913.3
18 23.05 СЗ 6
{18}
50 км 8/8 600 м
[Cu Sc]
+9.4 +1.2 57 +6 +6 1007.4 915.4
21 23.05 З 4 50 км 6/6 600 м
[Cu Sc]
+6.6 -0.3 61 +3 +3 1011.0 917.7
00 24.05 З 6
{10}
50 км 8/4 1000 м
[Cu Sc Ci fib]
+8.1 -0.5 55 +4 +6 1011.5 918.7 +6.6
03 24.05 З 5
{10}
50 км 8/6 600 м
[Cu Sc Ci fib]
+11.0 -1.7 41 +9 +12 1010.2 918.4
06 24.05 З 4
{10}
50 км 8/6 600 м
[Cu Sc Ci fib]
+14.2 -3.4 29 +13 +17 1008.2 917.5
09 24.05 СЗ 3 50 км 8/4 1000 м
[Cu Sc Ci fib]
+15.4 -8.4 19 +15 +18 1007.1 916.8
12 24.05 З 2 50 км 8/6 600 м
[Cu Sc Ci fib]
+12.8 -4.8 29 +13 +13 1008.4 917.3 +15.9
15 24.05 З 3 50 км 10/10 600 м
[Sc]
+10.0 -6.7 30 +9 +9 1010.5 918.3
18 24.05 З 2 50 км 10/10 600 м
[Sc]
+5.5 -4.4 49 +4 +4 1014.1 920.1
21 24.05 З 1 50 км 8/6 600 м
[Cu Sc Ci fib]
+0.7 -5.0 66 -1 -1 1017.0 921.2
00 25.05 З 3 50 км 8/0
[Ci fib]
+8.7 -4.4 39 +7 +11 1016.0 922.9 +0.2
03 25.05 СЗ 2 50 км 8/3 1000 м
[Cu hum Ci fib]
+14.5 -7.3 21 +15 +23 1013.9 922.7
06 25.05 СЗ 3
{10}
50 км 8/3 1000 м
[Cu hum Ci fib]
+15.7 -7.5 20 +15 +23 1013.4 922.6

 

Местоположение метеостанции Хилок (Забайкальский край, Россия): широта 51.37 долгота 110.40 высота над уровнем моря 802 м.

В архиве по умолчанию представлена погода в Хилке за последнюю неделю. Архивные данные за месяц целиком и за предыдущие месяцы, начиная с января 2011 года, Вы можете получить, выбрав интересующий диапазон дат из раскрывающегося списка и нажав кнопку "Ввод!".


*Определитесь, кто Вы:
робот инопланетянин человек

Внимание! Время в таблицах - всемирное. Для получения местного времени необходимо прибавить поправку, которая равна 9 ч.

Смотрите также архив погоды в соседних городах и на ближайших метеорологических станциях:

Погода в Черемхово (Забайкальский край, Россия) (90 км)
Погода в Хоринске (Бурятия, Россия) (101 км)
Погода в Петровском Заводе (Забайкальский край, Россия) (111 км)
Погода в Могзоне (Забайкальский край, Россия) (118 км)
Погода в Усть-Зазе (Бурятия, Россия) (129 км)
Погода в Улетах (Забайкальский край, Россия) (139 км)
Погода в Сосново-Озерском (Бурятия, Россия) (149 км)
Погода в Новой Курбе (Бурятия, Россия) (150 км)
Погода в Замокте (Бурятия, Россия) (159 км)
Погода в Красном Чикое (Забайкальский край, Россия) (163 км)

Пояснения к столбцам:

Ветер - указаны скорость ветра в м/с - средняя за 10 мин, порывы в срок и между сроками (в фигурных скобках) и направление, откуда дует ветер: С - северный, СВ - северо-восточный, В - восточный, ЮВ - юго-восточный, Ю - южный, ЮЗ - юго-западный, З - западный, СЗ - северо-западный.
Видимость - горизонтальная дальность видимости в метрах или километрах. При видимости от 1 до 10 км при отсутствии осадков обычно наблюдается дымка, при ухудшении видимости до 1 км и менее - туман. В сухую погоду видимость может ухудшаться дымом, пылью или мглою.
Явления - указаны атмосферные явления, наблюдавшиеся в срок или в последний час перед сроком; фигурными скобками обозначены явления, наблюдавшиеся между сроками (за 1-3 часа до срока); квадратными скобками обозначены град или гололедные отложения с указанием их диаметра в мм.
Облачность - указаны через наклонную черту общая и нижняя облачность в баллах и высота нижней границы облаков в метрах; квадратными скобками обозначены формы облаков: Ci - перистые, Cs - перисто-слоистые, Cc - перисто-кучевые, Ac - высококучевые, As - высокослоистые, Sc - слоисто-кучевые, Ns - слоисто-дождевые, Cu - кучевые, Cb - кучево-дождевые. Подробнее классификацию облаков см. в Атласе облаков (PDF).
T - Температура воздуха - температура, измеренная на высоте 2 м над землей.
Td - Температура точки росы - температура, при понижении до которой содержащийся в воздухе водяной пар достигнет насыщения.
f - Относительная влажность воздуха - влажноcть воздуха, измеренная на высоте 2 м над землей.
Te - Эффективная температура - температура, которую ощущает одетый по сезону человек в тени. Характеристика душности погоды. При расчете учитывается влияние влажности воздуха и скорости ветра на теплоощущения человека.
Tes - Эффективная температура на солнце - температура, которую ощущает человек, с поправкой на солнечный нагрев. Характеристика знойности погоды. Зависит от высоты солнца над горизонтом, облачности и скорости ветра. Ночью, в пасмурную погоду, а также при ветре 12 м/с и более поправка равна нулю.
P - Атмосферное давление - приведенное к уровню моря атмосферное давление.
Po - Атмосферное давление - измеренное на уровне метеостанции атмосферное давление.
Tmin - Минимальная температура - минимум температуры воздуха на высоте 2 м над землей.
Tmax - Максимальная температура - максимум температуры воздуха на высоте 2 м над землей.
R - Количество осадков - Количество выпавших осадков за период времени, мм. При наведении курсора мыши на число - период времени, за который выпало указанное количество осадков.
R24 - Количество осадков - Количество выпавших осадков за 24 часа, мм.
S - Снежный покров - Высота снежного покрова, см. При наведении курсора мыши на число - состояние снежного покрова и степень покрытия местности в баллах.